�������l�o���
Date,Time,MP-1(��Sv/h),MP-2(��Sv/h),MP-3(��Sv/h),MP-4(��Sv/h),MP-5(��Sv/h),MP-6(��Sv/h),MP-7(��Sv/h),MP-8(��Sv/h),����,����(m/s),���J
2017/02/20,00:00,1.064,1.785,1.183,2.055,1.434,0.557,1.023,0.950,�쐼,2.0,��
2017/02/20,00:10,1.062,1.784,1.186,2.053,1.435,0.557,1.021,0.951,�쐼,3.2,��
2017/02/20,00:20,1.063,1.782,1.182,2.055,1.438,0.558,1.024,0.948,�쐼,4.7,��
2017/02/20,00:30,1.061,1.784,1.181,2.056,1.438,0.559,1.022,0.949,�쐼,5.7,��
2017/02/20,00:40,1.063,1.785,1.184,2.055,1.435,0.559,1.022,0.949,�쐼,5.9,��
2017/02/20,00:50,1.063,1.784,1.185,2.056,1.437,0.559,1.022,0.950,�쐼,5.6,��
2017/02/20,01:00,1.062,1.785,1.184,2.055,1.435,0.558,1.023,0.948,�쐼,4.9,��
2017/02/20,01:10,1.060,1.782,1.184,2.056,1.434,0.558,1.022,0.950,�쐼,4.4,��
2017/02/20,01:20,1.063,1.782,1.183,2.054,1.435,0.558,1.022,0.950,�쐼,4.3,��
2017/02/20,01:30,1.061,1.783,1.183,2.056,1.434,0.560,1.022,0.949,��쐼,3.5,��
2017/02/20,01:40,1.063,1.784,1.184,2.055,1.434,0.559,1.023,0.949,��쐼,4.0,��
2017/02/20,01:50,1.060,1.781,1.185,2.058,1.433,0.559,1.024,0.950,��쐼,4.8,��
2017/02/20,02:00,1.062,1.783,1.183,2.055,1.434,0.558,1.023,0.951,��쐼,5.0,��
2017/02/20,02:10,1.064,1.782,1.185,2.055,1.433,0.560,1.024,0.950,��쐼,5.3,��
2017/02/20,02:20,1.061,1.784,1.184,2.056,1.434,0.560,1.024,0.949,��쐼,5.0,��
2017/02/20,02:30,1.062,1.783,1.183,2.056,1.437,0.559,1.022,0.948,��쐼,5.3,��
2017/02/20,02:40,1.063,1.781,1.185,2.054,1.435,0.558,1.023,0.948,��쐼,4.9,��
2017/02/20,02:50,1.063,1.781,1.184,2.056,1.433,0.560,1.023,0.951,��쐼,4.8,��
2017/02/20,03:00,1.064,1.782,1.185,2.059,1.439,0.560,1.023,0.949,�쐼,4.8,��
2017/02/20,03:10,1.063,1.783,1.185,2.060,1.435,0.558,1.023,0.950,��쐼,4.8,��
2017/02/20,03:20,1.063,1.788,1.186,2.054,1.436,0.559,1.024,0.949,�쐼,4.5,��
2017/02/20,03:30,1.064,1.784,1.184,2.057,1.435,0.559,1.024,0.948,�쐼,4.5,��
2017/02/20,03:40,1.065,1.780,1.184,2.056,1.436,0.559,1.025,0.950,�쐼,4.9,��
2017/02/20,03:50,1.063,1.786,1.186,2.056,1.434,0.559,1.021,0.951,��쐼,5.2,��
2017/02/20,04:00,1.063,1.783,1.184,2.060,1.435,0.559,1.024,0.950,��쐼,5.1,��
2017/02/20,04:10,1.064,1.785,1.184,2.055,1.434,0.559,1.025,0.951,��쐼,5.2,��
2017/02/20,04:20,1.061,1.784,1.188,2.055,1.437,0.559,1.023,0.950,��쐼,5.7,��
2017/02/20,04:30,1.063,1.783,1.184,2.057,1.435,0.558,1.024,0.950,��쐼,5.8,��
2017/02/20,04:40,1.065,1.785,1.185,2.055,1.438,0.558,1.025,0.948,��쐼,6.1,��
2017/02/20,04:50,1.063,1.784,1.184,2.056,1.434,0.559,1.026,0.948,��,6.1,��
2017/02/20,05:00,1.063,1.785,1.184,2.059,1.434,0.558,1.024,0.952,��,6.3,��
2017/02/20,05:10,1.065,1.784,1.183,2.058,1.435,0.559,1.026,0.950,��쐼,6.4,��
2017/02/20,05:20,1.065,1.785,1.185,2.056,1.435,0.559,1.024,0.950,��,7.5,��
2017/02/20,05:30,1.064,1.784,1.184,2.056,1.435,0.559,1.026,0.951,��,7.5,��
2017/02/20,05:40,1.062,1.783,1.184,2.057,1.437,0.558,1.025,0.951,��쐼,8.1,��
2017/02/20,05:50,1.064,1.784,1.186,2.055,1.435,0.559,1.026,0.953,��쐼,7.9,��
2017/02/20,06:00,1.064,1.784,1.183,2.056,1.434,0.560,1.025,0.951,��쐼,7.8,��
2017/02/20,06:10,1.066,1.784,1.184,2.059,1.437,0.559,1.026,0.951,��쐼,7.1,��
2017/02/20,06:20,1.063,1.786,1.185,2.057,1.436,0.559,1.025,0.951,��쐼,6.7,��
2017/02/20,06:30,1.065,1.785,1.185,2.057,1.438,0.560,1.023,0.948,��,6.1,��
2017/02/20,06:40,1.062,1.785,1.185,2.057,1.434,0.559,1.025,0.950,��쐼,5.8,��
2017/02/20,06:50,1.066,1.784,1.188,2.056,1.436,0.558,1.025,0.951,��쐼,4.6,��
2017/02/20,07:00,1.066,1.783,1.184,2.059,1.435,0.558,1.025,0.952,��쐼,4.5,��
2017/02/20,07:10,1.066,1.783,1.184,2.057,1.436,0.561,1.025,0.950,��쐼,4.3,��
2017/02/20,07:20,1.067,1.785,1.185,2.057,1.435,0.561,1.026,0.951,��,5.3,��
2017/02/20,07:30,1.066,1.786,1.189,2.057,1.435,0.561,1.027,0.950,��,5.7,��
2017/02/20,07:40,1.065,1.786,1.189,2.059,1.436,0.561,1.027,0.953,��,4.8,��
2017/02/20,07:50,1.066,1.787,1.190,2.061,1.438,0.559,1.027,0.950,��,3.6,��
2017/02/20,08:00,1.067,1.786,1.188,2.059,1.437,0.559,1.027,0.950,��,3.2,��
2017/02/20,08:10,1.068,1.786,1.189,2.058,1.440,0.562,1.027,0.950,��,3.6,��
2017/02/20,08:20,1.069,1.785,1.188,2.060,1.438,0.559,1.027,0.952,��,3.9,��
2017/02/20,08:30,1.066,1.786,1.189,2.063,1.434,0.558,1.026,0.952,��,4.2,��
2017/02/20,08:40,1.068,1.789,1.192,2.059,1.437,0.560,1.027,0.952,��쓌,5.0,��
2017/02/20,08:50,1.069,1.787,1.191,2.062,1.438,0.559,1.027,0.952,��,5.5,��
2017/02/20,09:00,1.069,1.785,1.190,2.062,1.440,0.560,1.027,0.951,��,6.0,��
2017/02/20,09:10,1.069,1.782,1.191,2.062,1.436,0.561,1.025,0.951,��쓌,7.9,��
2017/02/20,09:20,1.070,1.783,1.186,2.059,1.437,0.562,1.026,0.952,��쓌,8.1,��
2017/02/20,09:30,1.071,1.787,1.190,2.060,1.440,0.561,1.025,0.955,��쓌,8.1,��
2017/02/20,09:40,1.070,1.789,1.193,2.062,1.442,0.562,1.027,0.952,��쓌,8.4,��
2017/02/20,09:50,1.069,1.791,1.190,2.062,1.439,0.562,1.028,0.953,��쓌,7.5,��
2017/02/20,10:00,1.073,1.787,1.194,2.062,1.441,0.563,1.026,0.953,��쓌,8.2,��
2017/02/20,10:10,1.071,1.790,1.194,2.063,1.441,0.563,1.028,0.954,��쓌,6.7,��
2017/02/20,10:20,1.072,1.791,1.193,2.065,1.441,0.562,1.028,0.955,��쓌,9.2,��
2017/02/20,10:30,1.074,1.787,1.192,2.067,1.441,0.564,1.027,0.953,��쓌,7.2,��
2017/02/20,10:40,1.072,1.790,1.196,2.064,1.440,0.563,1.027,0.955,��,5.4,��
2017/02/20,10:50,1.074,1.789,1.197,2.065,1.439,0.564,1.029,0.955,��,7.2,��
2017/02/20,11:00,1.075,-,1.196,2.066,1.440,0.563,1.028,0.955,�쐼,6.6,��
2017/02/20,11:10,1.072,-,1.196,2.063,1.439,0.563,1.027,0.956,�쐼,5.3,��
2017/02/20,11:20,1.073,-,1.195,2.065,1.439,0.564,1.028,0.954,�쐼,4.7,�L
2017/02/20,11:30,1.072,-,1.197,2.066,1.437,0.564,1.026,0.953,��쐼,3.6,��
2017/02/20,11:40,1.077,-,1.197,2.065,1.441,0.565,1.027,0.954,��쓌,4.0,��
2017/02/20,11:50,1.074,-,1.193,2.063,1.438,0.566,1.026,0.955,��쓌,5.5,��
2017/02/20,12:00,1.075,-,1.193,2.069,1.442,0.566,1.027,0.956,��쓌,5.5,��
2017/02/20,12:10,1.074,-,1.197,2.067,1.441,0.566,1.028,0.955,�쓌,4.5,��
2017/02/20,12:20,1.079,-,1.196,2.069,1.442,0.566,1.028,0.955,�쓌,2.8,��
2017/02/20,12:30,1.078,-,1.197,2.067,1.444,0.568,1.027,0.955,��쓌,5.2,��
2017/02/20,12:40,1.078,-,1.198,2.069,1.443,0.569,1.029,0.955,��쓌,5.0,��
2017/02/20,12:50,1.078,-,1.197,2.068,1.444,0.566,1.030,0.957,��쓌,5.9,��
2017/02/20,13:00,1.078,-,1.200,2.066,1.442,0.567,1.029,0.956,��쓌,5.5,��
2017/02/20,13:10,1.078,-,1.198,2.066,1.441,0.567,1.029,0.954,��쓌,4.5,��
2017/02/20,13:20,1.079,-,1.199,2.066,1.442,0.567,1.030,0.953,��쓌,3.5,��
2017/02/20,13:30,1.079,-,1.201,2.068,1.442,0.565,1.030,0.954,��쓌,2.5,��
2017/02/20,13:40,1.078,-,1.202,2.069,1.442,0.567,1.028,0.953,�쓌,3.5,��
2017/02/20,13:50,1.078,-,1.200,2.068,1.441,0.565,1.031,0.952,�쓌,3.3,��
2017/02/20,14:00,1.079,-,1.200,2.069,1.440,0.565,1.029,0.953,��쓌,1.2,��
2017/02/20,14:10,1.079,-,1.198,2.067,1.443,0.567,1.029,0.953,�쓌,1.2,��
2017/02/20,14:20,1.078,-,1.196,2.066,1.442,0.567,1.026,0.953,��,0.9,��
2017/02/20,14:30,1.079,-,1.196,2.068,1.442,0.566,1.028,0.957,���쓌,1.5,��
2017/02/20,14:40,1.079,-,1.198,2.070,1.441,0.566,1.031,0.954,���쓌,1.5,��
2017/02/20,14:50,1.081,-,1.196,2.069,1.443,0.566,1.028,0.956,���쓌,0.9,��
2017/02/20,15:00,1.079,-,1.198,2.069,1.442,0.567,1.029,0.956,��,0.8,��
2017/02/20,15:10,1.079,-,1.196,2.069,1.444,0.566,1.029,0.957,���k��,0.9,��
2017/02/20,15:20,1.079,-,1.198,2.067,1.443,0.565,1.030,0.957,�k�k��,0.8,��
2017/02/20,15:30,1.083,-,1.200,2.069,1.444,0.568,1.031,0.959,�k,1.2,��
2017/02/20,15:40,1.078,-,1.198,2.064,1.445,0.567,1.028,0.958,�k,2.2,��
2017/02/20,15:50,1.079,-,1.197,2.070,1.443,0.567,1.027,0.956,�k,3.0,��
2017/02/20,16:00,1.081,-,1.198,2.071,1.449,0.566,1.030,0.957,�k,3.3,�L
2017/02/20,16:10,1.081,-,1.201,2.068,1.446,0.569,1.031,0.956,�k,5.1,�L
2017/02/20,16:20,1.079,1.791,1.195,2.066,1.446,0.568,1.029,0.957,�k�k��,6.8,�L
2017/02/20,16:30,1.079,1.793,1.201,2.066,1.446,0.566,1.032,0.956,�k�k��,6.6,��
2017/02/20,16:40,1.078,1.793,1.198,2.068,1.445,0.567,1.031,0.957,�k�k��,6.5,��
2017/02/20,16:50,1.079,1.793,1.197,2.068,1.447,0.568,1.028,0.956,�k��,4.8,��
2017/02/20,17:00,1.078,1.792,1.198,2.068,1.444,0.567,1.028,0.956,���k��,4.6,��
2017/02/20,17:10,1.078,1.789,1.197,2.069,1.445,0.568,1.032,0.955,���k��,4.8,��
2017/02/20,17:20,1.078,1.791,1.197,2.068,1.446,0.568,1.032,0.955,���k��,6.6,��
2017/02/20,17:30,1.080,1.791,1.198,2.067,1.443,0.568,1.030,0.956,���k��,5.0,��
2017/02/20,17:40,1.079,1.791,1.198,2.068,1.446,0.570,1.033,0.955,��,7.4,�L
2017/02/20,17:50,1.080,1.793,1.201,2.071,1.445,0.568,1.032,0.957,��,10.2,�L
2017/02/20,18:00,1.078,1.792,1.202,2.069,1.444,0.569,1.033,0.957,��,11.3,�L
2017/02/20,18:10,1.080,1.790,1.204,2.069,1.448,0.571,1.033,0.955,��,10.2,�L
2017/02/20,18:20,1.081,1.794,1.199,2.069,1.447,0.571,1.031,0.955,��,10.5,�L
2017/02/20,18:30,1.080,1.793,1.203,2.070,1.447,0.570,1.029,0.957,���k��,10.9,�L
2017/02/20,18:40,1.080,1.792,1.201,2.069,1.446,0.570,1.032,0.956,��,7.5,��
2017/02/20,18:50,1.082,1.793,1.200,2.071,1.446,0.570,1.031,0.956,���k��,6.1,��
2017/02/20,19:00,1.080,1.790,1.200,2.072,1.444,0.569,1.033,0.958,���k��,3.8,��
2017/02/20,19:10,1.078,1.791,1.198,2.069,1.443,0.569,1.033,0.957,�k��,2.8,��
2017/02/20,19:20,1.078,1.792,1.201,2.073,1.442,0.568,1.032,0.956,�k��,2.9,��
2017/02/20,19:30,1.078,1.789,1.200,2.069,1.442,0.568,1.029,0.956,�k��,3.5,��
2017/02/20,19:40,1.079,1.790,1.198,2.069,1.444,0.568,1.032,0.957,�k��,2.6,��
2017/02/20,19:50,1.078,1.790,1.199,2.069,1.443,0.567,1.030,0.956,���k��,5.9,��
2017/02/20,20:00,1.078,1.790,1.196,2.067,1.443,0.566,1.030,0.956,�k��,5.3,��
2017/02/20,20:10,1.079,1.792,1.199,2.067,1.444,0.565,1.031,0.956,�k��,4.7,��
2017/02/20,20:20,1.077,1.791,1.197,2.067,1.443,0.567,1.032,0.954,�k��,8.4,��
2017/02/20,20:30,1.076,1.789,1.196,2.066,1.440,0.567,1.031,0.953,�k��,7.3,��
2017/02/20,20:40,1.075,1.788,1.196,2.065,1.442,0.566,1.030,0.957,���k��,6.2,��
2017/02/20,20:50,1.075,1.788,1.197,2.065,1.441,0.563,1.029,0.954,���k��,4.5,��
2017/02/20,21:00,1.073,1.786,1.195,2.064,1.442,0.566,1.030,0.954,�k��,6.5,��
2017/02/20,21:10,1.074,1.790,1.196,2.067,1.442,0.566,1.029,0.955,�k��,7.8,��
2017/02/20,21:20,1.074,1.790,1.194,2.065,1.444,0.564,1.028,0.954,���k��,10.5,��
2017/02/20,21:30,1.072,1.787,1.194,2.066,1.438,0.564,1.031,0.956,���k��,11.6,��
2017/02/20,21:40,1.075,1.787,1.192,2.066,1.440,0.564,1.030,0.955,���k��,11.0,��
2017/02/20,21:50,1.074,1.787,1.194,2.067,1.439,0.563,1.030,0.955,���k��,15.7,��
2017/02/20,22:00,1.075,1.788,1.193,2.067,1.441,0.562,1.030,0.954,��,13.5,��
2017/02/20,22:10,1.072,1.788,1.193,2.065,1.442,0.564,1.030,0.954,��,12.7,��
2017/02/20,22:20,1.072,1.789,1.191,2.066,1.443,0.563,1.028,0.956,��,10.7,��
2017/02/20,22:30,1.072,1.786,1.191,2.062,1.443,0.563,1.029,0.953,��,10.7,��
2017/02/20,22:40,1.072,1.788,1.190,2.063,1.443,0.562,1.028,0.954,��,10.9,��
2017/02/20,22:50,1.070,1.786,1.190,2.067,1.440,0.564,1.031,0.953,��,9.0,��
2017/02/20,23:00,1.072,1.787,1.188,2.067,1.440,0.565,1.029,0.953,��,8.3,��
2017/02/20,23:10,1.072,1.786,1.188,2.065,1.443,0.564,1.032,0.953,��,13.3,��
2017/02/20,23:20,1.071,1.788,1.190,2.069,1.441,0.562,1.029,0.953,��,10.9,��
2017/02/20,23:30,1.073,1.785,1.192,2.064,1.438,0.562,1.031,0.954,��,9.3,��
2017/02/20,23:40,1.071,1.789,1.190,2.066,1.437,0.564,1.029,0.954,��,12.0,��
2017/02/20,23:50,1.072,1.786,1.192,2.066,1.441,0.564,1.032,0.953,��,12.0,��
